EW6604 Weather Reports


Display with metric or nautical units.
time (UTC)temp
F
wind
direction
speed
MPH
gust
MPH
rain 1hr
in
rain 24hr
in
rain mn
in
humidity
%
barometer
mb
20260903115724 80 81 0.0 2.0 0.00 1.20 0.00 92 1015.3
20260903115209 80 82 1.0 2.0 0.00 1.20 0.00 92 1015.3
20260903114718 80 74 2.0 4.0 0.00 1.20 0.00 93 1015.2
20260903114244 79 64 3.0 4.0 0.00 1.20 0.00 93 1015.0
20260903113707 79 62 2.0 4.0 0.00 1.20 0.00 93 1014.9
20260903113212 79 57 2.0 5.0 0.00 1.20 0.00 93 1014.9
20260903112717 79 56 3.0 5.0 0.00 1.20 0.00 93 1014.8
20260903112222 79 64 2.0 3.0 0.00 1.20 0.00 94 1014.8
20260903111707 79 58 1.0 3.0 0.00 1.20 0.00 94 1014.7
20260903111211 79 56 2.0 3.0 0.00 1.20 0.00 94 1014.6
20260903110716 79 64 2.0 3.0 0.00 1.20 0.00 94 1014.6
20260903110241 79 66 2.0 3.0 0.00 1.20 0.00 94 1014.5
20260903105724 79 68 1.0 2.0 0.00 1.20 0.00 94 1014.5
20260903105208 78 67 2.0 3.0 0.00 1.20 0.00 94 1014.5
20260903104717 79 65 2.0 3.0 0.00 1.20 0.00 94 1014.4
20260903104222 79 74 1.0 2.0 0.00 1.20 0.00 94 1014.3
20260903103707 79 77 1.0 2.0 0.00 1.20 0.00 94 1014.2
20260903103212 79 72 2.0 3.0 0.00 1.20 0.00 94 1014.1
20260903102717 79 74 2.0 3.0 0.00 1.20 0.00 94 1014.1
20260903102222 79 69 2.0 3.0 0.00 1.20 0.00 94 1014.1
20260903101707 79 80 2.0 2.0 0.00 1.20 0.00 94 1014.0
20260903101212 79 71 1.0 2.0 0.00 1.20 0.00 94 1013.9
20260903100709 79 70 2.0 4.0 0.00 1.20 0.00 94 1013.9
20260903100213 79 66 2.0 4.0 0.00 1.20 0.00 94 1013.8
20260903095717 79 65 3.0 3.0 0.00 1.20 0.00 94 1013.8
20260903095222 79 54 2.0 3.0 0.00 1.20 0.00 94 1013.7
20260903094707 79 36 2.0 3.0 0.00 1.20 0.00 94 1013.7
20260903094212 79 31 2.0 4.0 0.00 1.20 0.00 94 1013.7
20260903093737 79 32 3.0 4.0 0.00 1.20 0.00 94 1013.8
20260903093222 79 36 3.0 4.0 0.00 1.20 0.00 94 1013.7
20260903092706 79 42 2.0 3.0 0.00 1.20 0.00 94 1013.7
20260903092211 79 42 2.0 3.0 0.00 1.20 0.00 94 1013.6
20260903091737 79 44 0.0 2.0 0.00 1.20 0.00 94 1013.7
20260903091220 79 44 1.0 3.0 0.00 1.20 0.00 94 1013.8
20260903090709 79 47 2.0 3.0 0.00 1.20 0.00 94 1013.7
20260903090214 79 47 2.0 3.0 0.00 1.20 0.00 94 1013.8
20260903085738 79 48 1.0 2.0 0.00 1.20 0.00 94 1013.8
20260903085242 79 32 1.0 2.0 0.00 1.20 0.00 94 1013.8
20260903084707 79 32 2.0 2.0 0.00 1.20 0.00 94 1013.8
20260903084231 79 31 2.0 2.0 0.00 1.20 0.00 94 1013.8
20260903083736 79 44 0.0 2.0 0.00 1.20 0.00 94 1013.8
20260903083220 79 44 1.0 3.0 0.00 1.20 0.00 94 1013.8
20260903082724 79 47 2.0 3.0 0.00 1.20 0.00 94 1013.7
20260903082209 79 63 1.0 3.0 0.00 1.20 0.00 94 1013.8
20260903081715 79 64 2.0 3.0 0.00 1.20 0.00 94 1013.7
20260903081219 79 50 2.0 3.0 0.00 1.20 0.00 94 1013.7
20260903080716 79 47 1.0 3.0 0.00 1.20 0.00 94 1013.6
20260903080221 79 47 2.0 3.0 0.00 1.20 0.00 93 1013.7
20260903075746 79 47 2.0 2.0 0.00 1.20 0.00 93 1013.6
20260903075215 80 47 1.0 2.0 0.00 1.20 0.00 93 1013.6
20260903074719 79 47 1.0 3.0 0.00 1.20 0.00 93 1013.7
20260903074224 80 47 2.0 3.0 0.00 1.20 0.00 93 1013.8
20260903073710 80 61 1.0 2.0 0.00 1.20 0.00 93 1013.9
20260903073214 79 53 0.0 1.0 0.00 1.20 0.00 93 1014.0
20260903072718 80 52 0.0 2.0 0.00 1.20 0.00 93 1014.0
20260903072223 80 48 2.0 3.0 0.00 1.20 0.00 93 1014.1
20260903071708 80 57 2.0 2.0 0.00 1.20 0.00 93 1014.2
20260903071214 80 58 1.0 3.0 0.00 1.20 0.00 93 1014.3
20260903070719 80 54 3.0 4.0 0.00 1.20 0.00 93 1014.3
20260903070207 80 54 3.0 4.0 0.00 1.20 0.00 93 1014.4
20260903065713 80 54 3.0 5.0 0.00 1.20 0.00 93 1014.4
20260903065218 80 50 4.0 5.0 0.00 1.20 0.00 93 1014.4
20260903064722 80 55 3.0 4.0 0.00 1.20 0.00 93 1014.4
20260903064207 80 61 3.0 4.0 0.00 1.20 0.00 93 1014.4
20260903063711 80 61 3.0 5.0 0.00 1.20 0.00 92 1014.4
20260903063217 80 66 3.0 5.0 0.00 1.20 0.00 92 1014.4
20260903062720 80 53 3.0 5.0 0.00 1.20 0.00 93 1014.5
20260903062226 80 72 3.0 4.0 0.00 1.20 0.00 92 1014.6
20260903061710 80 49 3.0 5.0 0.00 1.20 0.00 92 1014.7
20260903061215 81 54 4.0 5.0 0.00 1.20 0.00 92 1014.7
20260903060715 81 72 4.0 5.0 0.00 1.20 0.00 93 1014.8
20260903060220 81 81 3.0 5.0 0.00 1.20 0.00 93 1014.7
20260903055723 81 67 2.0 5.0 0.00 1.20 0.00 93 1014.8
20260903055208 80 81 4.0 6.0 0.00 1.20 0.00 92 1014.9
20260903054713 80 75 5.0 6.0 0.00 1.20 0.00 92 1014.9
20260903054218 80 71 5.0 6.0 0.00 1.20 0.00 93 1015.0
20260903053722 80 96 5.0 7.0 0.00 1.20 0.00 92 1015.0
20260903053247 80 82 5.0 7.0 0.00 1.20 0.00 93 1015.0
20260903052711 80 72 5.0 7.0 0.00 1.20 0.00 93 1015.0
20260903052216 80 83 6.0 7.0 0.00 1.20 0.00 92 1015.0
20260903051740 80 73 6.0 7.0 0.00 1.20 0.00 92 1015.1
20260903051225 80 77 6.0 7.0 0.00 1.20 0.00 92 1015.1
20260903050714 80 67 5.0 8.0 0.00 1.20 0.00 92 1015.1
20260903050218 80 68 6.0 8.0 0.00 1.20 0.00 92 1015.1
20260903045723 80 63 4.0 7.0 0.00 1.20 0.00 92 1015.1
20260903045208 80 59 5.0 7.0 0.00 1.20 0.00 93 1015.1
20260903044713 80 66 6.0 7.0 0.00 1.20 0.00 92 1015.2
20260903044218 80 78 5.0 7.0 0.00 1.20 0.00 93 1015.2
20260903043723 80 76 6.0 7.0 0.00 1.20 0.00 93 1015.2
20260903043207 80 72 5.0 7.0 0.00 1.20 0.00 93 1015.3
20260903042711 80 66 5.0 7.0 0.00 1.20 0.00 93 1015.3
20260903042235 80 68 3.0 4.0 0.00 1.20 0.00 94 1015.4
20260903041739 80 49 2.0 3.0 0.00 1.20 0.00 94 1015.3
20260903041240 80 56 2.0 3.0 0.00 1.20 0.00 93 1015.4
20260903040714 80 44 3.0 5.0 0.00 1.20 0.00 93 1015.4
20260902204714 80 5 9.0 11.0 0.09 1.10 1.10 93 1014.8
20260902204218 80 19 7.0 12.0 0.09 1.10 1.10 93 1014.7
20260902203743 80 29 8.0 12.0 0.09 1.10 1.10 93 1014.8
20260902203246 80 30 8.0 11.0 0.09 1.10 1.10 93 1014.8
20260902202709 80 23 7.0 10.0 0.23 1.10 1.10 93 1014.9
20260902202213 80 25 8.0 10.0 0.49 1.10 1.10 92 1015.0
20260902201717 80 14 5.0 12.0 0.49 1.10 1.10 92 1015.1
20260902201219 80 35 8.0 13.0 0.40 1.01 1.01 92 1015.0
20260902200736 80 50 10.0 13.0 0.40 1.01 1.01 92 1014.8
20260902200219 80 35 8.0 11.0 0.40 1.01 1.01 91 1014.7
20260902195723 80 25 9.0 11.0 0.40 1.01 1.01 91 1014.7
20260902195208 80 24 9.0 11.0 0.40 1.01 1.01 91 1014.8
20260902194713 80 28 9.0 11.0 0.40 1.01 1.01 90 1014.8
20260902194221 80 32 9.0 12.0 0.40 1.01 1.01 91 1014.8
20260902193744 80 34 10.0 12.0 0.40 1.01 1.01 91 1014.8
20260902193208 81 257 3.0 17.0 0.40 1.01 1.01 91 1014.7
20260902192712 82 110 4.0 28.0 0.26 0.87 0.87 89 1015.0
20260902192216 84 54 12.0 28.0 0.00 0.61 0.61 88 1014.8
20260902191740 84 354 8.0 11.0 0.00 0.61 0.61 88 1014.6
20260902191224 84 2 7.0 9.0 0.00 0.61 0.61 88 1014.6
20260902190709 84 347 6.0 12.0 0.00 0.61 0.61 88 1014.6
20260902190233 84 12 9.0 12.0 0.00 0.61 0.61 86 1014.6
20260902185716 83 352 7.0 12.0 0.00 0.61 0.61 88 1014.7
20260902185220 83 6 10.0 12.0 0.00 0.61 0.61 89 1014.9
20260902184725 83 343 6.0 10.0 0.00 0.61 0.61 90 1014.9
20260902184208 83 325 7.0 9.0 0.00 0.61 0.61 91 1014.9
20260902183717 83 334 6.0 8.0 0.00 0.61 0.61 91 1015.0
20260902183221 82 329 6.0 8.0 0.00 0.61 0.61 91 1015.2
20260902182726 83 358 5.0 11.0 0.00 0.61 0.61 91 1015.3
20260902182210 82 324 7.0 11.0 0.01 0.61 0.61 91 1015.4
20260902181734 82 336 7.0 12.0 0.01 0.61 0.61 91 1015.4
20260902181217 83 323 9.0 12.0 0.01 0.61 0.61 91 1015.4
20260902180713 83 324 8.0 10.0 0.01 0.61 0.61 90 1015.5
20260902180218 83 326 7.0 9.0 0.01 0.61 0.61 90 1015.6
20260902175740 83 337 5.0 10.0 0.01 0.61 0.61 90 1015.7
20260902175224 83 325 5.0 10.0 0.02 0.61 0.61 90 1015.6
20260902174708 83 325 6.0 7.0 0.18 0.61 0.61 90 1015.7
20260902174213 82 341 3.0 8.0 0.26 0.61 0.61 90 1015.8
20260902173717 82 306 6.0 8.0 0.27 0.61 0.61 91 1015.8
20260902173226 82 311 5.0 8.0 0.28 0.61 0.61 91 1015.9
20260902172710 82 328 5.0 8.0 0.28 0.61 0.61 91 1016.0
20260902172235 81 324 5.0 8.0 0.27 0.60 0.60 91 1015.9
20260902171718 81 323 7.0 9.0 0.27 0.60 0.60 91 1016.0
20260902171238 81 345 6.0 8.0 0.27 0.60 0.60 91 1016.1
20260902170739 80 325 5.0 11.0 0.27 0.60 0.60 91 1016.2
20260902170223 80 314 8.0 11.0 0.27 0.60 0.60 92 1016.3
20260902165728 79 317 5.0 11.0 0.27 0.60 0.60 91 1016.3
20260902165211 80 49 7.0 17.0 0.24 0.57 0.57 91 1016.6
20260902164715 81 43 10.0 18.0 0.10 0.43 0.43 90 1016.5
20260902164219 82 42 11.0 18.0 0.02 0.35 0.35 89 1016.4
20260902163724 83 298 6.0 8.0 0.01 0.34 0.34 89 1016.2
20260902163208 83 291 5.0 7.0 0.00 0.33 0.33 89 1016.1
20260902162713 84 301 4.0 9.0 0.00 0.33 0.33 88 1016.1
20260902162238 84 48 6.0 11.0 0.00 0.33 0.33 86 1016.1
20260902161724 84 46 9.0 11.0 0.00 0.33 0.33 87 1016.1
20260902161208 83 50 5.0 8.0 0.00 0.33 0.33 87 1016.2
20260902160725 83 55 4.0 7.0 0.12 0.33 0.33 87 1016.3
20260902160209 83 57 3.0 8.0 0.31 0.33 0.33 88 1016.5
20260902155715 82 89 4.0 9.0 0.31 0.33 0.33 88 1016.8
20260902155240 82 45 7.0 9.0 0.31 0.33 0.33 90 1016.8
20260902154724 81 33 7.0 12.0 0.31 0.33 0.33 90 1016.8
20260902154207 81 44 8.0 13.0 0.31 0.33 0.33 90 1016.7
20260902153711 80 30 9.0 14.0 0.32 0.33 0.33 90 1016.9
20260902153214 81 29 9.0 14.0 0.33 0.33 0.33 91 1017.0
20260902152719 80 42 7.0 13.0 0.33 0.33 0.33 91 1017.1
20260902152224 80 53 10.0 13.0 0.33 0.33 0.33 91 1017.2
20260902151709 80 53 10.0 16.0 0.33 0.33 0.33 92 1017.2
20260902151217 80 61 8.0 22.0 0.33 0.33 0.33 90 1017.3
20260902150722 81 88 19.0 22.0 0.16 0.16 0.16 90 1017.2
20260902150227 82 66 6.0 9.0 0.02 0.02 0.02 89 1016.8
20260902145712 83 56 7.0 9.0 0.02 0.02 0.02 89 1016.8
20260902145238 82 37 4.0 8.0 0.02 0.02 0.02 89 1016.7
20260902144721 82 43 4.0 6.0 0.02 0.02 0.02 90 1016.7
20260902144226 82 53 3.0 9.0 0.02 0.02 0.02 89 1016.8
20260902143730 82 39 6.0 10.0 0.01 0.01 0.01 89 1016.7
20260902143215 82 37 8.0 12.0 0.00 0.00 0.00 89 1016.7
20260902142719 83 33 9.0 12.0 0.00 0.00 0.00 88 1016.7
20260902142223 83 44 10.0 13.0 0.00 0.00 0.00 89 1016.7
20260902141720 82 40 8.0 12.0 0.00 0.00 0.00 90 1016.7
20260902141212 82 23 5.0 8.0 0.00 0.00 0.00 90 1016.7
20260902140724 82 35 6.0 9.0 0.00 0.00 0.00 90 1016.7
20260902140212 82 29 7.0 9.0 0.00 0.00 0.00 90 1016.7
20260902135717 82 33 7.0 9.0 0.00 0.00 0.00 90 1016.6
20260902135221 82 42 7.0 9.0 0.00 0.00 0.00 90 1016.7
20260902134727 82 37 8.0 8.0 0.00 0.00 0.00 90 1016.7
20260902134230 82 45 6.0 9.0 0.00 0.00 0.00 89 1016.7
20260902133735 82 49 7.0 11.0 0.00 0.00 0.00 90 1016.7
20260902133218 82 44 9.0 11.0 0.00 0.00 0.00 90 1016.7
20260902132743 82 53 8.0 10.0 0.00 0.00 0.00 90 1016.7
20260902132227 82 41 8.0 10.0 0.00 0.00 0.00 90 1016.7
20260902131712 82 46 7.0 9.0 0.00 0.00 0.00 90 1016.7
20260902131217 82 25 6.0 9.0 0.00 0.00 0.00 90 1016.7
20260902130722 81 35 6.0 10.0 0.00 0.00 0.00 91 1016.7
20260902130227 81 39 6.0 10.0 0.00 0.00 0.00 91 1016.7
20260902125716 81 44 6.0 9.0 0.00 0.00 0.00 91 1016.7
20260902125221 81 38 7.0 9.0 0.00 0.00 0.00 91 1016.7
20260902124725 81 39 7.0 9.0 0.00 0.00 0.00 92 1016.6
20260902124209 81 37 6.0 10.0 0.00 0.00 0.00 92 1016.5
20260902123715 80 25 7.0 10.0 0.00 0.00 0.00 92 1016.5
20260902123220 80 29 6.0 7.0 0.00 0.00 0.00 92 1016.5
20260902122724 80 32 5.0 7.0 0.00 0.00 0.00 92 1016.5
20260902122210 80 36 6.0 9.0 0.00 0.00 0.00 92 1016.5
20260902121715 80 15 7.0 9.0 0.00 0.00 0.00 92 1016.4
20260902121220 80 33 7.0 9.0 0.00 0.00 0.00 92 1016.4
20260902120717 80 28 7.0 10.0 0.00 0.00 0.00 93 1016.5
20260902120242 80 28 8.0 10.0 0.00 0.00 0.00 93 1016.6